COSMOS 2434 (721) (32393 NORAD) Tracking and Keplerian Element Data

This shows tracking and keplerian element data for the satellite.

Feedback or suggestion? Click here.




ElementValue
Catalog32393
NameCOSMOS 2434 (721)
Epoch Orbit8218
Epoch Day198.59881294
Epoch Year2018
RAAN290.4699
Inclination64.8783
Eccentricity0.0004679
Argument of Perigee126.6604
Mean Anonmoly315.5742
Mean Motion2.13103033
Decay Rate-3.6E-07
L11 32393U 07065A 18198.59881294 -.00000036 00000-0 00000-0 0 9991
L22 32393 64.8783 290.4699 0004679 126.6604 315.5742 2.13103033 82180

Live tracking and technical data element details for COSMOS 2434 (721) (NORAD 32393). COSMOS 2434 (721) can be tracked NOW for your location showing map with azimuth and elevation plus other details from your city location.

Track the satellite on the map from your city or location and see movement details for azimuth, elevation, latitude, longitude, range, height, and movement on the map or in text.







IsCatalogInMostPopularTable: catalog: 32393, numindb: 30
Update: records affected: 1



GetName: 32393 COSMOS 2434 (721)

Hit Count: updated at: Thu, 19 Jul 2018 03:27:45 GMT